K5KVN-2 Weather Reports


Display with metric or nautical units.
time (UTC)temp
F
wind
direction
speed
MPH
gust
MPH
rain 1hr
in
rain 24hr
in
rain mn
in
humidity
%
barometer
mb
20260505151616 67 156 3.0 8.0 0.00 0.51 0.51 88 1005.2
20260505151058 67 126 4.0 7.0 0.00 0.51 0.51 88 1005.1
20260505140612 63 147 3.0 7.0 0.00 0.51 0.51 91 1005.7
20260505124603 61 150 5.0 9.0 0.00 0.51 0.51 93 1005.6
20260505123601 61 141 5.0 9.0 0.00 0.51 0.51 93 1005.6
20260505122602 60 136 5.0 9.0 0.00 0.51 0.51 93 1005.5
20260505121602 60 150 5.0 9.0 0.00 0.51 0.51 93 1005.6
20260505121103 60 134 5.0 9.0 0.00 0.51 0.51 94 1005.7
20260505120050 60 124 4.0 7.0 0.00 0.51 0.51 94 1005.5
20260505114602 60 138 4.0 7.0 0.00 0.51 0.51 94 1005.4
20260505113602 60 139 3.0 6.0 0.00 0.51 0.51 94 1005.7
20260505111604 60 128 2.0 7.0 0.01 0.51 0.51 94 1005.6
20260505111047 60 125 3.0 10.0 0.01 0.51 0.51 94 1005.5
20260505101603 60 105 1.0 5.0 0.01 0.50 0.50 94 1005.8
20260505100603 60 110 0.0 3.0 0.01 0.50 0.50 94 1006.0
20260505095610 60 61 1.0 6.0 0.02 0.50 0.50 94 1006.0
20260505094605 60 75 1.0 5.0 0.02 0.50 0.50 94 1006.0
20260505093600 60 44 1.0 4.0 0.02 0.50 0.50 94 1006.1
20260505091600 60 346 2.0 4.0 0.07 0.49 0.49 94 1006.1
20260505090602 60 342 0.0 2.0 0.28 0.49 0.49 93 1006.1
20260505085601 60 5 1.0 3.0 0.33 0.48 0.48 93 1006.1
20260505083601 61 5 1.0 3.0 0.41 0.48 0.48 92 1006.0
20260505082558 61 15 3.0 6.0 0.40 0.47 0.47 92 1006.4
20260505081600 61 338 3.0 13.0 0.35 0.42 0.40 91 1005.8
20260505080558 61 336 9.0 23.0 0.14 0.21 0.21 90 1006.1
20260505075601 62 349 10.0 26.0 0.10 0.15 0.15 88 1005.5
20260505074559 62 0 9.0 16.0 0.06 0.07 0.07 87 1005.4
20260505074034 63 333 3.0 15.0 0.07 0.07 0.07 87 1005.1
20260505072600 63 102 6.0 11.0 0.07 0.07 0.07 84 1004.0
20260505071600 63 138 8.0 13.0 0.07 0.07 0.07 85 1004.1
20260505070558 62 144 4.0 10.0 0.07 0.07 0.07 87 1004.4
20260505065558 63 107 3.0 6.0 0.05 0.05 0.05 84 1005.3
20260505064600 63 350 4.0 6.0 0.01 0.01 0.00 82 1006.1
20260505063559 64 313 2.0 7.0 0.00 0.00 0.00 80 1005.9
20260505062600 64 130 5.0 8.0 0.00 0.00 0.00 79 1005.4
20260505061602 64 119 3.0 9.0 0.00 0.00 0.00 78 1005.8
20260505060558 65 287 4.0 9.0 0.00 0.00 0.00 77 1006.6
20260505055558 66 121 3.0 6.0 0.00 0.00 0.00 73 1005.8
20260505054559 66 153 1.0 4.0 0.00 0.00 0.00 71 1006.6
20260505053557 66 124 2.0 5.0 0.00 0.00 0.00 70 1006.2
20260505052600 66 190 5.0 9.0 0.00 0.00 0.00 70 1006.4
20260505051552 66 139 5.0 12.0 0.00 0.00 0.00 70 1005.9
20260505050554 66 96 4.0 8.0 0.00 0.00 0.00 71 1006.0
20260505041552 65 139 2.0 3.0 0.00 0.00 0.00 72 1006.8
20260505040549 66 152 2.0 5.0 0.00 0.00 0.00 72 1006.9
20260505035549 66 167 4.0 6.0 0.00 0.00 0.00 71 1006.9
20260505034550 67 0 4.0 8.0 0.00 0.00 0.00 71 1007.2
20260505034028 67 163 4.0 8.0 0.00 0.00 0.00 70 1007.2
20260505032550 67 170 5.0 9.0 0.00 0.00 0.00 71 1007.3
20260505031548 67 176 5.0 9.0 0.00 0.00 0.00 70 1007.2
20260505030549 67 160 5.0 8.0 0.00 0.00 0.00 70 1007.3
20260505025543 67 174 5.0 7.0 0.00 0.00 0.00 70 1007.6
20260505024542 67 173 5.0 7.0 0.00 0.00 0.00 70 1007.3
20260505023541 68 183 6.0 11.0 0.00 0.00 0.00 69 1007.3
20260505022542 68 166 6.0 10.0 0.00 0.00 0.00 69 1007.0
20260505021543 67 169 5.0 6.0 0.00 0.00 0.00 69 1006.8
20260505020543 68 174 5.0 9.0 0.00 0.00 0.00 69 1006.7
20260505015543 68 178 5.0 8.0 0.00 0.00 0.00 68 1006.6
20260505015019 68 202 4.0 7.0 0.00 0.00 0.00 67 1006.6
20260505013543 69 173 4.0 6.0 0.00 0.00 0.00 67 1006.4
20260505012536 69 188 5.0 7.0 0.00 0.00 0.00 66 1006.4
20260505011536 70 182 6.0 9.0 0.00 0.00 0.00 65 1006.2
20260505010535 70 180 6.0 11.0 0.00 0.00 0.00 64 1006.1
20260505005535 71 179 6.0 10.0 0.00 0.00 0.00 62 1006.0
20260505004539 71 157 7.0 12.0 0.00 0.00 0.00 62 1006.0
20260505003531 71 160 7.0 15.0 0.00 0.00 0.00 62 1006.0
20260505002531 72 174 8.0 14.0 0.00 0.00 0.00 61 1006.0
20260505001530 72 167 8.0 12.0 0.00 0.00 0.00 60 1005.9
20260505000530 72 163 9.0 19.0 0.00 0.00 0.00 61 1006.0
20260504235529 73 185 9.0 16.0 0.00 0.00 0.00 59 1006.0
20260504234532 73 165 10.0 19.0 0.00 0.00 0.00 59 1006.0
20260504233527 73 180 13.0 21.0 0.00 0.00 0.00 57 1006.1
20260504232527 74 178 12.0 31.0 0.00 0.00 0.00 56 1006.1
20260504231525 74 169 13.0 23.0 0.00 0.00 0.00 56 1006.2
20260504230527 74 155 13.0 26.0 0.00 0.00 0.00 55 1006.3
20260504225526 75 178 12.0 22.0 0.00 0.00 0.00 55 1006.3
20260504225010 75 160 12.0 23.0 0.00 0.00 0.00 54 1006.1
20260504223525 76 182 13.0 25.0 0.00 0.00 0.00 54 1006.2
20260504222527 76 169 12.0 22.0 0.00 0.00 0.00 53 1006.0
20260504221523 76 165 11.0 23.0 0.00 0.00 0.00 55 1005.9
20260504220528 76 191 13.0 25.0 0.00 0.00 0.00 54 1006.0
20260504220009 76 176 15.0 26.0 0.00 0.00 0.00 51 1006.2
20260504214519 76 144 14.0 26.0 0.00 0.00 0.00 54 1006.2
20260504213519 77 173 14.0 24.0 0.00 0.00 0.00 56 1006.3
20260504212517 77 182 13.0 22.0 0.00 0.00 0.00 53 1006.4
20260504211516 76 154 16.0 26.0 0.00 0.00 0.00 53 1006.5
20260504210516 76 184 15.0 29.0 0.00 0.00 0.00 53 1006.7
20260504205515 76 184 16.0 30.0 0.00 0.00 0.00 53 1006.9
20260504204959 76 209 16.0 29.0 0.00 0.00 0.00 51 1007.2
20260504203519 77 203 14.0 27.0 0.00 0.00 0.00 53 1007.4
20260504202955 77 201 15.0 28.0 0.00 0.00 0.00 51 1007.4
20260504201513 77 193 13.0 27.0 0.00 0.00 0.00 52 1007.8
20260504200510 77 159 15.0 28.0 0.00 0.00 0.00 52 1007.8
20260504195509 77 182 15.0 24.0 0.00 0.00 0.00 52 1007.9
20260504195004 76 168 14.0 26.0 0.00 0.00 0.00 51 1008.0
20260504193509 77 197 13.0 22.0 0.00 0.00 0.00 51 1008.0
20260504192512 76 163 17.0 29.0 0.00 0.00 0.00 56 1008.2
20260504191509 76 163 14.0 28.0 0.00 0.00 0.00 52 1008.2
20260504190512 76 175 14.0 27.0 0.00 0.00 0.00 53 1008.4
20260504185507 76 200 15.0 28.0 0.00 0.00 0.00 53 1008.3
20260504184507 76 166 16.0 29.0 0.00 0.00 0.00 53 1008.4
20260504183506 75 167 17.0 32.0 0.00 0.00 0.00 53 1008.6
20260504182508 76 176 16.0 27.0 0.00 0.00 0.00 54 1008.8
20260504181517 76 185 15.0 28.0 0.00 0.00 0.00 57 1008.8
20260504180509 76 178 13.0 24.0 0.00 0.00 0.00 55 1009.0
20260504175507 75 228 15.0 29.0 0.00 0.00 0.00 56 1009.0
20260504174505 75 184 15.0 24.0 0.00 0.00 0.00 55 1009.2
20260504173503 74 182 16.0 26.0 0.00 0.00 0.00 57 1009.5
20260504172500 74 163 14.0 23.0 0.00 0.00 0.00 57 1009.6
20260504171504 74 185 15.0 28.0 0.00 0.00 0.00 57 1009.4
20260504170503 73 169 17.0 25.0 0.00 0.00 0.00 56 1009.5